Location: Malanoce
(44.2500°N, 7.4667°E)
Time: 21:11:47
(UTC+00:00)

Aureole 3 Rocket - Pass Details

Date: 17 November 2025
Orbit: 398 x 1690 km, 82.5° (Epoch: 11 December)

Event Time Altitude Azimuth Distance (km) Brightness Sun altitude
Rises 17:55:00 0° 208° (SSW) 2,346 6.5 -20.2°
Reaches altitude 10° 17:57:09 10° 220° (SW) 1,451 5.6 -20.6°
Maximum altitude 17:59:52 30° 284° (WNW) 755 4.1 -21.1°
Drops below altitude 10° 18:02:43 10° 349° (NNW) 1,516 5.1 -21.6°
Enters shadow 18:02:56 - 350° (N) 1,609 5.2 -21.7°
